Regional Weather Roundup
Issued by NWS Sioux Falls, SD

Home | Current Version | Previous Version | Graphics & Text | Print | Product List | Glossary Off
Versions: 1 2 3 4 5 6 7 8 9 10 11 12 13 14 15 16 17 18 19 20 21 22 23 24 25 26 27 28 29 30 31 32 33 34 35 36 37 38 39 40 41 42 43 44 45 46 47 48 49 50

000
ASUS43 KFSD 252302
RWRFSD

WEATHER ROUNDUP FOR SE SOUTH DAKOTA/SW MINNESOTA/NW IOWA
NATIONAL WEATHER SERVICE SIOUX FALLS SD
600 PM CDT MON JUL 25 2016

NOTE: "FAIR" INDICATES FEW OR NO CLOUDS BELOW 12,000 FEET WITH NO
SIGNIFICANT WEATHER AND OR OBSTRUCTIONS TO VISIBILITY.


SDZ038>040-050-052>070-260000-
SOUTHEAST SOUTH DAKOTA

CITY           SKY/WX    TMP DP  RH WIND       PRES   REMARKS
BROOKINGS      SUNNY     83  64  52 S12       30.05F
CHAMBERLAIN    SUNNY     92  54  27 S14G22    30.00F
HURON          SUNNY     90  55  30 S14G24    29.99F
MADISON        FAIR      81  64  57 S13       30.07S
MITCHELL       SUNNY     90  56  31 S13       30.02F
SIOUX FALLS    SUNNY     84  60  44 S8        30.05F
WINNER         FAIR      94  46  19 SE18      30.01F
YANKTON        SUNNY     88  57  35 SE10      30.02F
$$

MNZ071-072-080-081-089-090-097-098-260000-
SOUTHWEST MINNESOTA

CITY           SKY/WX    TMP DP  RH WIND       PRES   REMARKS
FAIRMONT       SUNNY     84  64  51 NW6       30.05F
JACKSON        SUNNY     84  59  42 W6        30.08F
LUVERNE        SUNNY     82  61  47 S6        30.07F
MARSHALL       SUNNY     85  64  49 SW9       30.04F
MONTEVIDEO     SUNNY     86  64  48 SW10      30.04F
REDWOOD FALLS  MOSUNNY   86  64  47 W10       30.03F
WINDOM         SUNNY     84  61  45 SW6       30.07F
WORTHINGTON    SUNNY     83  65  54 VRB7      30.08F
$$

IAZ001>003-012>014-020>022-031-032-NEZ013-014-SDZ071-260000-
NORTHWEST IOWA

CITY           SKY/WX    TMP DP  RH WIND       PRES   REMARKS
CHEROKEE       SUNNY     86  62  45 S3        30.06F
DENISON        SUNNY     82  66  57 E6        30.04F
ESTHERVILLE    SUNNY     84  64  50 NW3       30.07F
LE MARS        SUNNY     84  64  51 CALM      30.06F
SHELDON        SUNNY     84  64  51 SW5       30.06F
SIOUX CITY     SUNNY     88  60  38 SE6       30.04F
SPENCER        SUNNY     85  62  46 SW5       30.07F
STORM LAKE     SUNNY     84  61  45 CALM      30.08F
$$

ABBREVIATIONS USED IN REMARKS
   TC - TEMPERATURE IN CELSIUS
  WCI - WIND CHILL INDEX
   HX - HEAT INDEX
  VSB - VISIBILITY




USA.gov is the U.S. government's official web portal to all federal, state and local government web resources and services.